Regional Weather Roundup
Issued by NWS

Home | Current Version | Previous Version | Graphics & Text | Print | Product List | Glossary On
Versions: 1 2 3 4 5 6 7 8 9 10 11 12 13 14 15 16 17 18 19 20 21 22 23 24 25 26 27 28 29 30 31 32 33 34 35 36 37 38 39 40 41 42 43 44 45 46 47 48 49 50
000
ASUS43 KBIS 262020
RWRND

NORTH DAKOTA REGIONAL WEATHER ROUNDUP
NATIONAL WEATHER SERVICE BISMARCK ND
200 PM CST WED NOV 26 2014

NOTE: "FAIR" INDICATES FEW OR NO CLOUDS BELOW 12,000 FEET WITH NO
SIGNIFICANT WEATHER AND/OR OBSTRUCTIONS TO VISIBILITY.


NDZ001>003-009>011-017-262100-
NORTHWEST NORTH DAKOTA

CITY           SKY/WX    TMP DP  RH WIND       PRES   REMARKS
WILLISTON      PTSUNNY   11   3  70 N7        30.36F WCI   0
MINOT          SUNNY      4  -4  69 NW7       30.40S WCI  -8
MINOT AFB      MOSUNNY    3  -4  72 N8        30.41S WCI -10
$$

NDZ018>021-031>035-040>046-262100-
SOUTHWEST NORTH DAKOTA

CITY           SKY/WX    TMP DP  RH WIND       PRES   REMARKS
BISMARCK       CLOUDY    11   3  70 E3        30.39S
DICKINSON      CLOUDY    21  13  71 NW5       30.26S WCI  15
GARRISON         N/A      7   1  76 N7        30.37S WCI  -5
HETTINGER ARPT LGT SNOW  21  16  81 NE12      30.27S WCI   9
$$

NDZ004>008-012>016-024-026-027-054-262100-
NORTHEAST NORTH DAKOTA

CITY           SKY/WX    TMP DP  RH WIND       PRES   REMARKS
GRAND FORKS    MOSUNNY    4  -6  63 N14       30.46R WCI -14
GRND FRKS AFB  SUNNY      4  -6  64 N13       30.46R WCI -13
DEVILS LAKE    SUNNY      1 -13  51 N10       30.40R WCI -14
$$

NDZ022-023-025-028>030-036>039-047>053-262100-
SOUTHEAST NORTH DAKOTA

CITY           SKY/WX    TMP DP  RH WIND       PRES   REMARKS
FARGO          CLOUDY     5  -4  66 N17       30.43R WCI -14
JAMESTOWN      PTSUNNY    3  -5  69 N10       30.39R WCI -12
$$



USA.gov is the U.S. government's official web portal to all federal, state and local government web resources and services.